EW4885 Weather Reports


Display with metric or nautical units.
time (UTC)temp
F
wind
direction
speed
MPH
gust
MPH
rain 1hr
in
rain 24hr
in
rain mn
in
humidity
%
barometer
mb
20260507114528 63 279 4.0 9.0 0.00 0.21 0.01 73 1014.0
20260507113027 62 5 5.0 9.0 0.00 0.21 0.01 70 1014.2
20260507111523 62 310 4.0 10.0 0.00 0.21 0.01 74 1014.2
20260507110025 60 289 3.0 9.0 0.00 0.21 0.01 74 1014.3
20260507104521 60 316 4.0 9.0 0.00 0.26 0.01 72 1014.4
20260507103022 60 277 2.0 7.0 0.00 0.26 0.01 76 1014.4
20260507101525 60 307 2.0 7.0 0.00 0.26 0.01 73 1014.5
20260507100016 58 355 4.0 6.0 0.00 0.26 0.01 79 1014.7
20260507094512 57 355 4.0 7.0 0.00 0.40 0.01 79 1014.6
20260507093010 57 13 2.0 6.0 0.00 0.40 0.01 82 1014.5
20260507091507 56 32 2.0 4.0 0.00 0.40 0.01 84 1014.4
20260507090006 56 327 2.0 5.0 0.00 0.53 0.01 87 1014.4
20260507084504 56 281 1.0 5.0 0.00 0.53 0.01 88 1014.3
20260507083003 55 5 1.0 6.0 0.00 0.53 0.01 90 1014.2
20260507081604 54 328 2.0 7.0 0.00 0.53 0.01 90 1014.3
20260507080056 54 301 3.0 5.0 0.00 0.53 0.01 91 1014.2
20260507074606 53 344 3.0 5.0 0.00 0.68 0.01 92 1014.1
20260507073059 53 317 1.0 5.0 0.00 0.68 0.01 93 1014.1
20260507071549 52 306 2.0 4.0 0.00 0.68 0.01 94 1014.1
20260507070047 52 346 1.0 4.0 0.00 0.68 0.01 95 1014.0
20260507064544 51 273 0.0 1.0 0.00 0.87 0.01 95 1013.9
20260507063047 51 347 0.0 0.0 0.00 0.87 0.01 96 1013.8
20260507061539 50 347 0.0 0.0 0.00 0.87 0.01 97 1013.6
20260507060036 50 347 0.0 0.0 0.00 0.87 0.01 97 1013.6
20260507054539 49 347 0.0 0.0 0.00 1.05 0.01 97 1013.6
20260507053029 49 347 0.0 0.0 0.00 1.05 0.01 97 1013.6
20260507051526 48 295 0.0 0.0 0.00 1.05 0.01 97 1013.5
20260507050032 48 138 0.0 0.0 0.00 1.05 0.01 96 1013.4
20260507044523 48 138 0.0 0.0 0.00 1.19 0.01 96 1013.2
20260507043016 48 138 0.0 0.0 0.00 1.19 0.01 96 1013.1
20260507041527 48 138 0.0 0.0 0.00 1.19 0.01 96 1013.1
20260507040014 48 138 0.0 0.0 0.00 1.19 0.01 96 1013.0
20260507034517 48 138 0.0 0.0 0.00 1.23 0.01 96 1013.0
20260507033013 48 138 1.0 3.0 0.00 1.23 0.01 96 1012.9
20260507031521 48 167 0.0 0.0 0.00 1.23 0.01 96 1013.1
20260507030013 48 167 0.0 0.0 0.00 1.23 0.01 96 1013.0
20260507024513 48 167 0.0 0.0 0.00 1.23 0.01 96 1013.0
20260507023009 48 167 0.0 0.0 0.00 1.23 0.01 96 1013.0
20260507021508 48 167 0.0 0.0 0.00 1.23 0.01 96 1012.8
20260507020008 48 167 0.0 0.0 0.00 1.23 0.01 96 1012.7
20260507014515 48 167 0.0 0.0 0.01 1.23 0.01 96 1012.7
20260507013005 48 167 0.0 0.0 0.01 1.23 0.01 96 1012.7
20260507011506 48 167 0.0 0.0 0.01 1.23 0.01 95 1012.6
20260507010003 49 167 0.0 0.0 0.01 1.24 0.01 96 1012.6
20260507004505 49 167 0.0 0.0 0.00 1.23 0.00 96 1012.6
20260507003001 49 167 0.0 2.0 0.00 1.23 0.00 96 1012.6
20260507001602 49 167 1.0 3.0 0.00 1.23 0.00 96 1012.5
20260507000058 49 192 0.0 2.0 0.00 1.23 0.00 96 1012.4
20260506234602 49 214 0.0 0.0 0.00 1.23 0.00 96 1012.4
20260506233059 49 214 0.0 1.0 0.00 1.23 0.00 96 1012.4
20260506231559 49 215 0.0 1.0 0.00 1.23 0.00 96 1012.4
20260506230057 49 214 0.0 2.0 0.00 1.23 0.00 96 1012.3
20260506224551 49 213 1.0 3.0 0.00 1.23 0.00 95 1012.1
20260506223055 49 259 0.0 1.0 0.00 1.23 0.00 95 1012.0
20260506221548 49 259 0.0 1.0 0.00 1.23 0.00 95 1011.9
20260506220047 49 259 0.0 2.0 0.00 1.23 0.00 95 1011.8
20260506214545 49 259 0.0 2.0 0.01 1.28 1.23 95 1011.9
20260506213102 49 298 0.0 0.0 0.01 1.28 1.23 95 1011.8
20260506211602 49 299 0.0 3.0 0.01 1.28 1.23 95 1011.9
20260506210043 49 126 0.0 1.0 0.01 1.28 1.23 94 1011.8
20260506204546 49 126 0.0 3.0 0.00 1.27 1.22 95 1011.7
20260506203041 49 125 2.0 4.0 0.00 1.27 1.22 95 1011.5
20260506201550 49 99 2.0 3.0 0.00 1.27 1.22 94 1011.5
20260506200034 49 61 1.0 3.0 0.00 1.27 1.22 94 1011.4
20260506194533 50 94 1.0 3.0 0.05 1.28 1.22 94 1011.4
20260506193031 50 49 1.0 3.0 0.13 1.28 1.22 94 1011.4
20260506191556 50 118 1.0 5.0 0.17 1.28 1.22 94 1011.2
20260506190055 50 224 2.0 6.0 0.18 1.28 1.22 94 1011.0
20260506184606 50 147 2.0 7.0 0.13 1.27 1.17 93 1010.9
20260506183057 50 238 3.0 7.0 0.06 1.18 1.09 92 1011.0
20260506181543 50 39 3.0 6.0 0.02 1.13 1.05 91 1010.7
20260506180047 51 22 3.0 7.0 0.01 1.12 1.04 90 1010.4
20260506174542 52 15 5.0 8.0 0.01 1.15 1.04 88 1010.2
20260506173048 53 351 9.0 14.0 0.00 1.14 1.03 84 1010.0
20260506171540 56 307 4.0 8.0 0.00 1.14 1.03 79 1009.7
20260506170055 58 348 2.0 5.0 0.00 1.14 1.03 76 1009.5
20260506164538 59 217 0.0 3.0 0.00 1.14 1.03 74 1009.3
20260506163039 59 182 3.0 6.0 0.00 1.14 1.03 72 1009.1
20260506161540 60 216 2.0 4.0 0.00 1.14 1.03 71 1009.2
20260506160040 61 171 3.0 7.0 0.00 1.14 1.03 69 1009.2
20260506154534 60 169 4.0 9.0 0.00 1.14 1.03 70 1009.1
20260506153029 59 153 2.0 7.0 0.00 1.14 1.03 74 1009.1
20260506151529 59 115 4.0 8.0 0.00 1.14 1.03 78 1009.2
20260506150027 59 151 5.0 10.0 0.00 1.14 1.03 76 1009.3
20260506144524 58 191 4.0 9.0 0.00 1.15 1.03 79 1009.3
20260506143030 58 144 6.0 11.0 0.00 1.15 1.03 81 1009.3
20260506141520 57 161 5.0 9.0 0.00 1.15 1.03 84 1009.6
20260506140017 56 160 3.0 9.0 0.00 1.15 1.03 87 1009.7
20260506134513 54 155 4.0 10.0 0.00 1.27 1.03 89 1009.8
20260506133012 54 144 5.0 12.0 0.00 1.27 1.03 89 1009.9
20260506131512 54 130 6.0 12.0 0.00 1.27 1.03 89 1010.0
20260506130014 54 197 5.0 12.0 0.00 1.27 1.03 91 1010.0
20260506124510 54 169 6.0 12.0 0.00 1.27 1.03 90 1009.9
20260506123010 55 146 6.0 10.0 0.00 1.27 1.03 91 1009.8
20260506121510 55 149 3.0 9.0 0.01 1.27 1.03 91 1009.9
20260506120008 55 199 5.0 10.0 0.01 1.27 1.03 92 1010.0